Weather reports worldwide

Advertisment
Weybourne, United Kingdom (3488): temperature & dewpoint: 12.09.2019 05:00:00 - 18.09.2019 05:00:00 (BST)Weybourne, United Kingdom (3488): wind speed & gusts: 12.09.2019 05:00:00 - 18.09.2019 05:00:00 (BST)Weybourne, United Kingdom (3488): wind direction: 12.09.2019 05:00:00 - 18.09.2019 05:00:00 (BST)Weybourne, United Kingdom (3488): reduced air pressure: 12.09.2019 05:00:00 - 18.09.2019 05:00:00 (BST)Weybourne, United Kingdom (3488): visibility: 12.09.2019 05:00:00 - 18.09.2019 05:00:00 (BST)Weybourne, United Kingdom (3488): sunshine duration: 12.09.2019 05:00:00 - 18.09.2019 05:00:00 (BST)Weybourne, United Kingdom (3488): precipitation: 12.09.2019 05:00:00 - 18.09.2019 05:00:00 (BST)
Date & Time tt [°C] td [°C] ff [km/h] ff [kn] fx [km/h] fx [kn] dd ppp [hPa] vv [km] sd [min] rr [mm]
18.09.2019 05:00:00 12,4 6,9 18 10 - - NNW 1028,7 26 0 -
18.09.2019 04:00:00 12,3 6,8 21 11 - - NNW 1028,5 27 0 0,0
18.09.2019 03:00:00 12,2 6,9 16 9 - - N 1028,3 18 0 0,0
18.09.2019 02:00:00 12,2 7,3 15 8 - - N 1028,4 19 0 0,0
18.09.2019 01:00:00 12,2 7,1 16 9 - - N 1028,2 17 - 0,0
18.09.2019 00:00:00 12,4 6,6 21 11 - - N 1028,3 14 0 0,0
17.09.2019 23:00:00 12,2 7,2 22 12 - - NNE 1028,1 12 0 0,0
17.09.2019 22:00:00 12,3 7,4 24 13 - - N 1028,2 12 0 0,0
17.09.2019 21:00:00 12,2 7,0 24 13 - - N 1027,8 10 0 0,0
17.09.2019 20:00:00 12,4 6,0 24 13 - - N 1027,4 13 0 0,0
17.09.2019 19:00:00 12,5 6,4 29 16 - - N 1027,0 17 54 0,0
17.09.2019 18:00:00 13,1 5,8 28 15 - - N 1026,8 23 54 0,0
17.09.2019 17:00:00 13,9 7,6 29 16 - - N 1026,5 24 54 0,0
17.09.2019 16:00:00 14,2 7,0 28 15 - - NNW 1026,4 21 60 0,0
17.09.2019 15:00:00 14,3 7,5 28 15 - - NNW 1026,2 22 54 0,0
17.09.2019 14:00:00 15,3 8,9 28 15 - - NNW 1025,8 22 54 0,0
17.09.2019 13:00:00 15,5 8,6 26 14 - - NNW 1025,6 26 54 0,0
17.09.2019 12:00:00 14,6 10,2 22 12 - - NW 1025,1 29 54 0,0
17.09.2019 11:00:00 14,4 9,9 22 12 - - NW 1024,7 25 54 0,0
17.09.2019 10:00:00 13,8 9,6 24 13 - - NNW 1024,0 17 12 0,0
17.09.2019 09:00:00 13,0 9,4 24 13 - - NNW 1023,7 20 12 0,0
17.09.2019 08:00:00 12,4 8,9 24 13 - - NNW 1023,1 16 0 0,0
17.09.2019 07:00:00 12,0 8,6 26 14 - - NW 1022,7 35 0 0,0
17.09.2019 06:00:00 12,0 8,6 28 15 - - NW 1022,1 45 0 0,0
17.09.2019 05:00:00 12,3 9,0 29 16 - - NW 1022,1 50 0 0,0
17.09.2019 04:00:00 9,6 9,4 13 7 - - WSW 1022,3 7 0 0,0
17.09.2019 03:00:00 8,2 7,8 16 9 - - SW 1022,4 12 0 0,0
17.09.2019 02:00:00 7,9 7,6 16 9 - - SSW 1022,4 22 0 0,0
17.09.2019 01:00:00 7,3 7,0 9 5 - - S 1022,5 19 - 0,0
17.09.2019 00:00:00 7,1 6,6 8 4 - - SSW 1022,8 19 0 0,0
16.09.2019 23:00:00 7,3 6,8 5 3 - - SSW 1023,0 15 0 0,0
16.09.2019 22:00:00 8,1 7,4 9 5 - - SSW 1023,0 24 0 0,0
16.09.2019 21:00:00 9,0 7,9 4 2 - - SW 1023,2 20 0 0,0
16.09.2019 20:00:00 10,5 8,3 4 2 - - WSW 1022,8 23 0 0,0
16.09.2019 19:00:00 12,9 8,0 5 3 - - N 1022,5 29 6 0,0
16.09.2019 18:00:00 14,0 9,4 5 3 - - N 1022,3 30 54 0,0
16.09.2019 17:00:00 14,9 10,0 9 5 - - NNW 1022,3 19 60 0,0
16.09.2019 16:00:00 14,9 10,8 11 6 - - NNW 1022,4 30 36 0,0
16.09.2019 15:00:00 14,9 11,2 15 8 - - NNW 1022,6 20 0 0,0
16.09.2019 14:00:00 15,2 11,9 9 5 - - WNW 1022,5 35 0 0,0
16.09.2019 13:00:00 13,6 11,5 9 5 - - NNW 1022,5 23 0 0,0
16.09.2019 12:00:00 13,8 10,9 8 4 - - N 1022,3 30 0 0,0
16.09.2019 11:00:00 14,0 10,5 8 4 - - N 1022,1 35 0 0,0
16.09.2019 10:00:00 13,6 11,1 9 5 - - NNE 1021,9 50 0 0,0
16.09.2019 09:00:00 13,4 11,2 8 4 - - NNE 1021,7 40 0 0,0
16.09.2019 08:00:00 12,7 11,3 8 4 - - ENE 1021,3 40 0 0,0
16.09.2019 07:00:00 12,4 11,4 11 6 - - ENE 1021,1 19 0 0,2
16.09.2019 06:00:00 12,4 11,9 11 6 - - ENE 1020,9 10 0 0,2
16.09.2019 05:00:00 12,3 12,0 13 7 - - ENE 1021,0 5 0 1,0
16.09.2019 04:00:00 12,6 12,3 9 5 - - E 1021,5 4,7 0 1,4
16.09.2019 03:00:00 12,3 11,8 9 5 - - ENE 1021,7 3,0 0 1,0
16.09.2019 02:00:00 12,4 11,7 13 7 - - ENE 1022,2 5 0 0,6
16.09.2019 01:00:00 12,6 11,8 11 6 - - ENE 1022,6 7 - 0,8
16.09.2019 00:00:00 12,6 11,6 15 8 - - NE 1022,7 11 0 0,4
15.09.2019 23:00:00 13,1 11,1 16 9 - - NNE 1022,9 13 0 0,0
15.09.2019 22:00:00 14,4 10,3 11 6 - - ENE 1022,7 18 0 0,0
15.09.2019 21:00:00 14,7 10,9 11 6 - - ENE 1022,9 14 0 0,0
15.09.2019 20:00:00 14,8 12,4 11 6 - - E 1023,1 14 0 0,0
15.09.2019 19:00:00 15,0 12,4 11 6 - - ENE 1022,8 18 0 0,0
15.09.2019 18:00:00 15,3 13,6 16 9 - - NE 1022,8 14 0 0,0
15.09.2019 17:00:00 17,6 14,2 24 13 - - WNW 1022,8 45 0 0,0
15.09.2019 16:00:00 18,0 14,5 18 10 - - NW 1022,6 50 6 0,0
15.09.2019 15:00:00 20,6 15,6 13 7 - - NW 1022,5 35 48 0,0
15.09.2019 14:00:00 20,3 14,9 22 12 - - WNW 1022,9 45 48 0,0
15.09.2019 13:00:00 19,2 13,8 21 11 - - WNW 1023,4 45 18 0,0
15.09.2019 12:00:00 20,0 13,6 31 17 46 25 W 1023,3 40 60 0,0
15.09.2019 11:00:00 19,2 13,2 26 14 - - W 1023,3 50 60 0,0
15.09.2019 10:00:00 17,8 11,9 22 12 - - WSW 1023,3 35 54 0,0
15.09.2019 09:00:00 15,4 10,1 28 15 - - WSW 1022,8 50 48 0,0
15.09.2019 08:00:00 14,1 9,3 26 14 - - SW 1022,4 50 12 0,0
15.09.2019 07:00:00 12,5 8,0 22 12 - - SW 1022,8 50 0 0,0
15.09.2019 06:00:00 13,2 8,0 26 14 - - SW 1022,5 45 0 0,0
15.09.2019 05:00:00 12,6 7,7 24 13 - - SW 1022,6 50 0 0,0
15.09.2019 04:00:00 12,4 7,5 24 13 - - SSW 1022,9 50 0 0,0
15.09.2019 03:00:00 12,9 7,6 24 13 - - SW 1023,6 50 0 0,0
15.09.2019 02:00:00 12,7 8,0 24 13 - - SSW 1024,3 50 0 0,0
15.09.2019 01:00:00 13,5 8,3 24 13 - - SSW 1024,6 50 - 0,0
15.09.2019 00:00:00 13,4 9,1 22 12 - - SSW 1025,2 50 0 0,0
14.09.2019 23:00:00 14,2 9,5 21 11 - - SSW 1025,9 45 0 0,0
14.09.2019 22:00:00 14,8 6,5 21 11 - - S 1026,4 50 0 0,0
14.09.2019 21:00:00 13,8 6,3 15 8 - - SSW 1027,0 50 0 0,0
14.09.2019 20:00:00 13,2 5,8 11 6 - - SSW 1027,4 50 0 0,0
14.09.2019 19:00:00 17,5 7,0 13 7 - - SSW 1027,7 40 54 0,0
14.09.2019 18:00:00 18,7 10,1 5 3 - - NW 1027,9 25 42 0,0
14.09.2019 17:00:00 18,5 9,3 5 3 - - NNW 1028,5 50 24 0,0
14.09.2019 16:00:00 20,3 6,9 15 8 - - SW 1029,6 50 36 0,0
14.09.2019 15:00:00 20,5 7,0 11 6 - - SSW 1030,4 45 60 0,0
14.09.2019 14:00:00 18,5 10,3 9 5 - - ESE 1031,8 50 60 0,0
14.09.2019 13:00:00 19,7 7,0 8 4 - - SSW 1032,7 50 60 0,0
14.09.2019 12:00:00 19,0 7,9 9 5 - - SSW 1033,5 35 60 0,0
14.09.2019 11:00:00 18,0 7,4 11 6 - - S 1034,0 50 60 0,0
14.09.2019 10:00:00 16,5 8,8 9 5 - - S 1034,3 40 60 0,0
14.09.2019 09:00:00 13,6 12,2 9 5 - - S 1034,3 45 60 0,0
14.09.2019 08:00:00 8,0 7,9 8 4 - - SSW 1034,7 45 30 0,0
14.09.2019 07:00:00 5,9 5,7 9 5 - - SSW 1034,8 30 0 0,0
14.09.2019 06:00:00 6,1 5,9 11 6 - - SSW 1035,1 30 0 0,0
14.09.2019 05:00:00 6,1 5,8 9 5 - - SSW 1035,4 30 0 0,0
14.09.2019 04:00:00 6,2 5,9 9 5 - - SSW 1035,8 28 0 0,0
14.09.2019 03:00:00 6,7 6,3 11 6 - - SSW 1036,0 35 0 0,0
14.09.2019 02:00:00 7,8 7,5 11 6 - - SSW 1036,4 30 0 0,0
14.09.2019 01:00:00 6,9 6,5 8 4 - - S 1036,6 28 - 0,0
14.09.2019 00:00:00 7,0 6,4 8 4 - - S 1036,6 30 0 0,0
13.09.2019 23:00:00 7,4 6,7 8 4 - - SSE 1036,8 30 0 0,0
13.09.2019 22:00:00 7,9 7,0 5 3 - - SSE 1037,1 40 0 0,0
13.09.2019 21:00:00 8,5 7,2 8 4 - - SSE 1036,6 35 0 0,0
13.09.2019 20:00:00 10,5 8,5 4 2 - - SSE 1036,2 40 0 0,0
13.09.2019 19:00:00 13,3 9,1 8 4 - - E 1036,0 35 36 0,0
13.09.2019 18:00:00 14,5 9,6 9 5 - - ENE 1036,2 27 60 0,0
13.09.2019 17:00:00 15,0 9,7 11 6 - - ENE 1036,0 40 60 0,0
13.09.2019 16:00:00 15,9 9,8 13 7 - - NNE 1036,1 30 60 0,0
13.09.2019 15:00:00 16,2 10,1 15 8 - - N 1035,9 30 60 0,0
13.09.2019 14:00:00 16,1 9,9 13 7 - - NNW 1035,8 30 60 0,0
13.09.2019 13:00:00 15,8 9,8 13 7 - - NNW 1035,9 45 60 0,0
13.09.2019 12:00:00 15,7 9,6 15 8 - - NNW 1035,7 29 60 0,0
13.09.2019 11:00:00 15,3 9,7 16 9 - - NNW 1035,3 25 60 0,0
13.09.2019 10:00:00 15,1 10,0 21 11 - - NNW 1034,8 40 60 0,0
13.09.2019 09:00:00 14,3 10,2 22 12 - - NNW 1034,0 26 54 0,0
13.09.2019 08:00:00 13,7 10,1 22 12 - - NNW 1033,1 25 0 0,0
13.09.2019 07:00:00 13,9 10,5 24 13 - - NNW 1032,1 28 0 0,0
13.09.2019 06:00:00 14,5 9,8 29 16 - - N 1031,4 35 0 0,0
13.09.2019 05:00:00 14,9 12,4 24 13 - - NW 1030,5 45 0 0,0
13.09.2019 04:00:00 15,5 13,1 21 11 - - NNW 1030,0 50 0 0,0
13.09.2019 03:00:00 15,2 13,5 16 9 - - NNW 1028,9 45 0 0,0
13.09.2019 02:00:00 15,4 13,4 18 10 - - NNW 1028,2 30 0 0,0
13.09.2019 01:00:00 17,7 14,9 28 15 - - W 1027,2 50 - 0,0
13.09.2019 00:00:00 18,5 13,7 26 14 - - WSW 1026,4 40 0 0,0
12.09.2019 23:00:00 18,5 13,2 29 16 - - WSW 1026,1 35 0 0,0
12.09.2019 22:00:00 19,8 13,2 31 17 48 26 WSW 1025,5 50 0 0,0
12.09.2019 21:00:00 20,2 12,3 29 16 46 25 WSW 1024,8 45 0 0,0
12.09.2019 20:00:00 21,6 14,3 31 17 - - WSW 1024,2 50 0 0,0
12.09.2019 19:00:00 22,1 15,4 29 16 50 27 WSW 1023,9 35 0 0,0
12.09.2019 18:00:00 22,6 15,2 31 17 - - SW 1023,5 50 6 0,0
12.09.2019 17:00:00 23,0 15,2 34 18 50 27 WSW 1023,5 45 6 0,0
12.09.2019 16:00:00 23,9 15,7 31 17 50 27 SW 1023,6 50 30 0,0
12.09.2019 15:00:00 23,3 15,2 35 19 52 28 SW 1024,0 45 54 0,0
12.09.2019 14:00:00 23,5 15,0 34 18 57 31 WSW 1024,3 50 54 0,0
12.09.2019 13:00:00 22,5 14,9 31 17 48 26 WSW 1024,7 30 54 0,0
12.09.2019 12:00:00 21,6 13,5 29 16 46 25 SW 1024,8 40 60 0,0
12.09.2019 11:00:00 19,9 12,9 28 15 - - WSW 1025,1 19 60 0,0
12.09.2019 10:00:00 17,8 12,0 28 15 - - SW 1025,0 40 60 0,0
12.09.2019 09:00:00 15,7 11,7 26 14 - - SW 1024,7 30 54 0,0
12.09.2019 08:00:00 14,4 11,5 22 12 - - SW 1024,5 30 60 0,0
12.09.2019 07:00:00 11,9 10,0 21 11 - - SSW 1023,9 30 0 0,0
12.09.2019 06:00:00 12,2 9,7 18 10 - - SSW 1023,5 40 0 0,0
12.09.2019 05:00:00 14,0 10,1 18 10 - - SSW 1023,2 45 0 0,0

tt = temperature
td = dewpoint
ff = wind speed
fx = gusts
dd = wind direction
ppp = reduced air pressure
vv = visibility
sd = sunshine duration
rr = precipitation

Next stations